SCP
0 0 0 -0 0 0 -0 -0 -0 -0 -0 -0 -0 -0 -0 -0 -0 -0 -0 -0 -0 -0 -0 -0 0 -0 0 0 -0 -0 0 0 0 0 0 0 0 -0 0 0 0 0 0 -0 -0 -0 -0
-0 -0 -0 -0 -0 0 0 0 -0 -0 -0 -0 -0 -0 -0 -0 -0 -0 -0 -0 -0 -0 -0 0 0 0 0 -0 -0 -0 -0 0 0 0 -0 -0 -0 0 -0 -0 -0 -0 -0 0 -0 -0 -0
-0 -0 -0 0 0 0 -0 0 0 -0 -0 -0 -0 -0 -0 -0 -0 -0 -0 -0 -0 -0 -0 0 0 0 0 -0 0 0 0 0 0 0 0 -0 -0 -0 -0 -0 0 0 -0 -0 0 -0 0
-0 -0 0 0 0 0 0 0 0 0 0 -0 -0 -0 -0 -0 -0 -0 -0 -0 -0 -0 -0 0 -0 0 0 0 0 0 -0 -0 0 0 0 0 0 -0 0 0 0 0 -0 -0 -0 0 0
0 0 0 0 0 0 0 0 0 0 0 -0 -0 -0 -0 -0 -0 -0 -0 -0 -0 0 0 -0 0 0 0 0 0 -0 0 -0 0 0 0 0 0 0 0 -0 0 0 -0 -0 -0 -0 0
0 0 0 0 0 0 0 0 0 0 0 0 0 0 -0 -0 -0 -0 -0 -0 0 0 0 0 0 0 0 0 0 0 0 -0 0 -0 0 0 0 0 0 0 -0 -0 -0 -0 -0 0 0
0 0 0 0 0 0 0 0 0 0 0 0 0 0 0 0 -0 -0 0 0 0 0 0 0 0 0 -0 0 0 0 0 0 0 0 0 0 0 0 0 0 0 0 0 -0 -0 0 0
0 0 0 0 0 0 0 0 0 0 0 0 0 0 0 0 0 0 0 0 0 0 -0 -0 0 -0 -0 0 0 0 0 0 0 0 0 0 -0 0 0 0 0 0 0 -0 -0 -0 0
0 0 0 0 0 -0 0 0 -0 -0 -0 0 0 0 0 0 0 0 0 0 0 0 -0 -0 0 0 0 0 0 -0 0 0 0 0 0 0 0 0 0 0 0 0 0 -0 -0 0 0
0 0 0 0 0 0 0 0 0 0 0 0 0 0 0 0 0 0 0 0 0 0 -0 -0 0 0 0 0 0 0 0 0 0 0 0 -0 -0 0 0 -0 0 -0 0 -0 -0 -0 0
0 0 0 0 0 0 0 0 0 0 0 0 0 0 0 -0 0 0 0 0 0 0 0 0 0 0 0 0 0 0 0 0 0 0 0 0 0 0 0 -0 0 -0 0 -0 -0 -0 -0
0 0 0 0 0 0 0 0 0 0 -0 -0 0 0 0 -0 0 0 0 0 0 0 0 0 0 0 0 0 0 0 0 0 0 0 0 0 0 0 0 0 0 0 0 0 -0 -0 0
0 0 0 0 0 0 0 0 0 -0 -0 -0 0 0 0 0 0 0 0 0 0 0 0 0 0 0 0 0 0 0 0 0 0 0 0 0 0 0 0 0 0 0 0 0 0 0 -0
0 0 0 0 0 0 0 0 0 -0 -0 -0 -0 0 0 0 0 0 0 0 0 0 0 0 0 0 0 0 0 0 0 0 0 0 0 0 0 0 0 0 0 0 0 0 0 0 0
0 0 0 0 0 0 0 0 0 0 0 0 -0 0 0 0 0 0 0 0 0 0 0 0 0 0 0 0 0 0 0 0 0 0 0 0 0 0 0 0 0 0 0 0 0 0 0
0 0 0 0 0 0 0 0 0 0 0 -0 -0 -0 0 0 0 0 0 0 0 0 0 0 0 0 0 0 0 0 0 0 0 0 0 0 0 0 0 0 0 0 0 0 0 0 0
0 0 0 0 0 0 0 0 0 0 0 -0 -0 -0 -0 0 0 0 0 0 0 0 0 0 0 0 0 0 0 0 0 0 0 0 0 0 0 0 0 0 0 0 0 0 0 0 0
0 0 0 0 0 0 0 0 0 0 0 0 -0 -0 0 0 0 0 0 0 0 0 0 0 0 0 0 0 0 0 0 0 0 0 0 0 0 0 0 0 0 0 0 0 0 0 0
0 0 0 0 0 0 0 0 0 0 0 0 -0 -0 -0 -0 0 0 0 0 0 0 0 0 0 0 0 0 0 0 0 0 0 0 0 0 0 0 0 0 0 0 0 0 0 0 -0
0 0 0 0 0 0 0 0 0 0 0 0 0 -0 -0 0 0 -0 0 0 0 0 0 0 0 0 0 0 0 0 0 0 0 0 0 0 0 0 0 0 0 0 0 0 0 0 0
0 0 0 0 0 0 0 0 0 0 0 0 0 0 0 0 0 0 0 0 0 0 0 0 0 0 0 0 -0 -0 -0 0 0 0 0 0 0 0 0 0 0 0 0 0 0 0 0
0 0 0 0 0 0 0 0 0 0 0 0 0 0 0 0 0 0 0 0 -0 0 0 0 0 0 0 0 -0 -0 -0 -0 -0 -0 0 -0 0 0 0 0 0 0 0 0 0 0 0
0 0 0 0 0 0 0 0 0 0 0 0 0 0 0 0 0 0 0 0 0 0 0 0 0 0 0 0 0 0 -0 -0 -0 -0 -0 -0 0 0 -0 0 0 0 0 0 0 0 0
0 0 0 0 0 0 0 0 0 0 0 0 0 0 0 0 0 0 0 0 0 0 0 0 0 0 0 -0 -0 0 -0 -0 -0 -0 -0 -0 -0 0 -0 0 0 0 -0 0 0 0 0
0 0 0 0 0 0 0 0 0 0 0 0 0 0 0 0 0 0 0 0 0 0 0 0 0 0 0 0 -0 -0 -0 -0 -0 -0 -0 -0 -0 0 0 0 0 0 0 0 0 0 0
0 0 0 0 0 0 0 0 0 0 0 0 0 0 0 0 0 0 0 0 0 0 0 0 0 0 0 0 -0 -0 -0 -0 0 -0 -0 -0 -0 -0 0 0 0 0 0 0 0 0 0
0 0 0 0 0 0 0 0 0 0 0 0 0 0 0 0 0 0 0 0 -0 0 -0 -0 0 0 0 0 0 0 0 0 0 0 0 0 0 0 0 0 0 0 0 0 0 0 0
0 0 0 0 0 0 0 0 0 0 0 0 0 0 0 0 0 0 -0 -0 -0 0 0 0 -0 0 0 0 0 0 0 0 0 0 0 0 0 0 0 0 0 0 0 0 0 0 0
0 0 0 0 0 0 0 0 0 0 0 0 0 0 0 0 0 0 -0 -0 -0 -0 -0 0 -0 -0 -0 -0 -0 0 0 0 0 0 0 0 0 0 0 0 0 -0 0 0 0 0 0
Wind_Speed_500mb
47 46 45 45 45 45 46 47 45 44 45 46 46 47 46 46 46 45 44 44 44 41 39 38 40 31 27 21 51 17 8 11 33 55 62 47 41 44 12 13 26 29 28 41 66 55 48
47 49 50 50 49 48 49 51 52 50 48 48 47 48 46 46 47 47 47 46 44 43 43 41 37 34 28 21 32 16 45 43 23 50 56 55 30 43 13 17 13 19 38 37 41 41 50
48 50 51 50 50 51 52 54 55 56 57 57 53 53 55 50 47 45 44 46 45 44 44 43 37 35 41 72 18 12 29 35 50 45 49 48 45 31 20 11 27 17 10 12 20 25 22
49 51 53 51 51 52 54 56 55 56 58 63 61 58 59 58 55 52 44 38 43 45 40 37 35 33 31 26 31 61 44 30 24 44 49 42 37 48 17 7 17 4 4 5 9 9 25
48 46 48 50 52 53 55 57 58 58 62 62 60 61 62 60 59 57 46 39 39 34 26 19 21 22 25 22 35 43 61 62 46 41 46 39 35 24 20 8 7 8 9 11 13 11 12
44 47 48 50 52 54 55 58 61 64 69 69 66 65 65 66 63 59 45 34 15 11 4 3 12 10 28 15 5 6 27 55 49 54 46 27 27 9 4 8 16 11 8 9 8 9 16
47 49 50 52 54 56 58 59 61 65 69 70 71 70 70 69 74 52 30 9 11 4 13 21 11 20 29 21 19 10 22 59 45 32 16 19 10 17 20 13 12 7 7 12 11 5 8
50 50 53 54 56 56 58 61 64 67 69 68 67 69 71 70 65 25 46 15 24 24 36 42 58 78 81 63 19 19 28 41 24 16 11 6 29 17 18 15 16 13 15 25 3 13 11
51 51 52 54 57 59 61 63 64 66 68 68 68 67 70 66 40 40 35 15 32 42 14 29 47 46 43 60 39 56 48 52 12 18 18 22 12 20 17 13 15 10 17 22 16 3 2
49 51 53 54 54 56 57 60 62 65 68 69 67 64 67 69 18 54 10 37 32 26 7 16 12 15 28 24 20 85 52 49 11 35 15 14 20 20 18 16 19 19 13 21 6 7 7
48 50 50 52 52 54 57 59 62 64 67 69 70 63 59 56 61 56 33 32 22 1 12 6 8 11 30 30 6 39 75 38 21 17 18 19 28 35 26 36 16 19 9 14 8 9 2
48 50 52 53 55 56 58 60 62 63 66 71 71 67 61 59 67 24 44 30 5 6 18 11 7 6 7 10 9 17 50 25 28 11 7 22 16 28 21 19 26 11 4 8 7 7 8
52 54 56 57 58 60 60 62 63 64 67 71 73 68 58 63 56 49 36 19 6 10 11 10 9 10 7 8 8 8 32 27 19 22 30 12 38 9 14 16 13 11 14 8 7 9 21
54 55 56 57 59 60 61 61 61 65 68 72 74 69 55 32 36 18 8 6 12 7 12 10 12 19 5 19 6 13 23 35 31 8 11 22 12 29 10 19 20 15 22 13 14 8 13
54 56 57 58 58 58 59 61 61 62 64 66 70 67 60 18 40 24 9 8 14 10 5 16 13 11 11 11 16 16 13 33 36 22 18 17 19 6 29 14 31 14 20 25 6 4 6
56 57 57 56 56 58 58 58 58 59 60 60 65 62 28 35 54 20 6 9 9 7 12 11 7 8 10 16 14 17 12 7 19 6 9 15 4 15 24 15 15 30 17 8 4 21 24
56 57 56 54 55 55 54 54 54 56 56 55 52 32 23 46 30 11 5 12 11 34 16 13 8 9 4 9 8 7 9 12 24 24 19 5 8 10 12 17 37 11 17 6 13 14 19
57 58 57 55 54 54 50 50 50 53 53 50 28 8 37 48 17 9 9 26 29 27 29 6 7 6 6 9 7 6 11 14 37 22 12 11 5 27 25 16 40 28 35 17 11 21 11
57 55 54 53 51 49 48 47 46 47 43 44 41 17 22 23 8 8 14 16 21 25 14 9 10 11 11 7 6 6 11 15 47 24 12 14 8 3 12 10 1 18 17 38 19 8 41
52 52 53 53 52 49 46 44 44 41 35 27 16 9 13 11 12 6 10 9 22 28 20 22 6 6 8 7 9 9 10 6 36 25 21 6 7 7 13 12 1 17 24 31 34 20 31
52 52 55 51 51 50 41 40 39 33 29 18 6 6 4 8 9 11 14 9 12 16 13 27 7 13 6 2 3 3 9 15 22 19 12 8 5 7 14 31 36 31 26 46 38 43 32
50 50 52 52 49 45 38 38 35 27 25 10 8 6 6 11 15 14 10 7 9 13 9 16 13 25 14 8 7 10 6 5 9 12 14 10 7 12 12 21 26 35 38 50 48 45 33
53 53 52 50 48 42 40 35 29 26 23 8 12 21 15 8 8 6 6 5 13 28 17 11 18 22 14 6 22 34 34 28 16 6 4 4 3 10 11 18 28 21 59 43 40 30 35
55 55 52 49 45 42 40 36 29 24 22 19 25 25 13 8 13 13 14 28 29 26 24 42 38 14 15 43 41 30 34 46 41 31 33 9 8 4 9 13 15 22 24 34 40 17 17
54 53 51 48 46 43 41 39 33 24 17 27 27 24 10 7 21 20 23 17 32 31 32 30 46 26 37 28 7 9 9 4 26 43 41 36 11 5 5 7 20 31 15 24 20 24 13
48 48 49 50 46 44 41 37 34 29 24 30 29 27 23 12 11 23 10 20 19 12 9 10 21 46 15 5 5 9 8 7 8 11 42 36 36 19 9 8 12 3 26 45 10 35 23
50 49 48 48 48 47 44 41 33 30 25 28 31 22 26 21 31 41 18 9 14 8 8 17 15 9 5 3 7 9 10 8 9 9 8 16 16 29 18 9 17 14 47 30 14 27 14
51 52 53 53 53 52 49 44 38 32 29 30 34 25 30 27 53 55 58 41 34 24 11 12 19 3 4 5 7 8 8 10 10 12 9 24 20 16 13 13 18 36 27 13 23 45 3
53 55 58 60 60 60 56 49 41 35 32 30 39 26 30 34 50 56 65 70 67 70 45 24 19 9 5 4 2 6 6 7 6 9 14 16 14 19 17 16 7 8 17 44 38 18 23
Wind_Direction_500mb
359 360 359 356 354 353 352 350 347 345 343 341 339 336 329 325 321 316 313 310 307 300 295 291 290 291 285 266 255 228 166 83 172 177 186 188 192 201 203 215 208 219 251 251 259 265 198
0 1 0 360 358 357 356 355 353 351 347 343 339 338 334 328 320 316 311 307 303 302 295 287 282 282 266 245 277 257 220 227 192 181 191 200 210 211 248 236 188 219 235 250 254 248 196
358 358 358 358 358 358 357 354 353 353 351 347 341 338 337 333 326 316 307 304 306 298 292 286 278 266 253 249 251 256 200 208 212 208 208 210 214 201 232 295 276 255 254 282 236 248 179
355 352 352 355 356 356 355 354 352 351 350 349 346 342 339 333 330 323 308 307 303 297 291 280 269 256 252 272 232 236 232 211 209 222 221 226 233 226 225 271 333 262 130 279 297 131 189
351 352 353 354 352 350 350 351 351 351 351 350 347 344 342 337 334 326 316 312 301 300 295 273 248 232 262 249 237 231 220 225 231 217 217 229 229 219 213 163 354 346 234 231 324 238 144
357 356 355 353 352 350 349 349 350 350 349 348 347 345 344 341 341 330 325 318 316 315 352 237 212 266 243 237 223 254 214 209 203 212 223 229 205 172 89 132 210 207 221 240 170 323 176
354 353 353 352 351 350 349 349 347 345 344 344 342 342 340 341 342 337 351 7 341 286 293 235 221 249 249 269 261 242 211 190 198 203 170 180 178 204 208 188 198 195 246 263 108 295 133
353 353 351 350 349 349 347 345 343 342 342 342 341 339 337 338 346 10 353 71 37 329 295 277 259 255 251 253 295 237 202 166 174 187 157 179 221 193 198 192 213 215 228 260 2 220 164
350 349 348 348 348 347 345 344 344 343 342 341 341 340 337 335 344 347 356 32 349 331 261 283 247 248 240 225 223 238 182 188 145 173 196 209 227 170 180 191 193 221 209 245 234 14 353
347 347 348 348 348 347 346 345 344 343 342 340 341 340 338 334 348 338 10 334 332 323 305 275 234 249 189 188 225 220 197 188 171 198 183 224 231 198 198 211 181 234 199 258 253 61 241
349 350 350 350 351 350 348 347 347 346 344 341 341 341 338 332 318 325 320 331 317 17 316 221 189 161 166 173 153 204 204 193 187 173 152 220 186 203 213 217 166 240 198 238 171 199 203
353 352 350 349 347 346 344 344 344 345 345 342 342 339 335 328 313 327 321 331 320 51 247 296 89 89 110 270 284 109 182 179 198 164 218 209 209 194 198 199 198 186 251 358 30 136 231
350 349 348 347 345 343 342 341 340 341 342 343 343 341 328 321 318 300 299 326 67 206 329 348 348 340 294 216 240 181 174 187 170 180 214 169 229 207 155 186 189 132 114 262 276 208 236
348 347 346 346 344 343 342 340 339 340 341 341 341 343 325 356 349 303 241 69 206 231 271 15 334 298 67 354 10 330 175 193 219 134 159 197 223 202 168 183 190 188 179 162 198 207 245
346 345 344 343 342 341 342 343 342 338 337 339 340 344 337 31 12 346 185 199 206 203 10 346 333 37 350 3 5 14 15 215 200 180 175 180 234 201 195 188 178 190 192 197 142 199 11
344 341 340 340 340 342 342 342 342 339 336 340 341 337 23 358 335 318 53 273 285 335 8 2 10 21 345 346 5 23 346 341 357 294 245 205 206 221 205 173 212 199 163 172 349 218 241
340 339 338 338 338 338 339 341 341 339 338 341 343 328 6 345 328 184 198 245 297 304 357 355 336 317 274 319 4 18 283 52 11 344 336 279 239 230 142 193 200 197 200 189 155 177 226
343 341 340 338 336 338 338 339 339 339 339 342 346 330 359 358 46 12 9 319 328 307 339 311 313 318 309 19 325 230 250 32 28 7 20 330 263 239 213 217 202 205 213 177 195 226 248
343 342 341 339 337 336 338 337 337 339 340 342 330 294 13 10 57 350 316 318 342 357 327 9 337 29 18 6 332 51 325 31 18 16 19 341 309 292 332 297 318 214 191 201 207 158 232
344 345 343 340 339 335 335 334 335 338 337 346 332 330 341 38 81 4 337 311 350 339 320 345 303 46 46 11 32 328 309 26 348 336 3 42 295 238 256 269 107 206 228 214 206 221 233
349 348 345 343 341 337 334 333 335 334 331 335 315 274 342 315 346 327 323 275 348 3 334 330 349 59 20 3 283 121 2 330 333 2 16 83 254 282 311 295 292 263 261 228 213 217 214
348 347 349 349 348 348 339 336 334 330 321 316 285 299 317 279 278 308 312 311 288 342 334 313 329 320 311 232 217 288 275 185 243 327 355 350 279 343 295 259 265 265 255 253 228 216 227
349 347 347 347 350 349 346 343 339 329 314 270 278 285 267 273 284 282 244 276 307 314 288 239 297 299 303 250 304 280 271 234 221 184 292 283 265 12 286 315 321 276 238 246 247 221 195
349 347 345 343 345 348 350 347 342 333 316 287 286 276 253 274 273 279 295 284 290 287 281 291 293 291 294 321 311 290 250 224 229 228 207 216 166 164 264 309 230 263 217 231 230 224 197
348 348 346 342 342 340 341 343 341 333 313 299 288 280 257 269 274 276 272 291 296 292 285 257 273 277 318 312 310 324 310 236 227 224 205 203 175 221 225 260 294 303 283 192 197 233 215
349 350 352 350 344 340 338 339 334 330 312 295 290 282 262 271 240 259 282 288 286 279 293 259 283 312 286 232 206 215 220 298 259 277 208 197 209 186 163 227 249 237 325 328 243 228 194
347 347 348 347 344 342 339 337 330 327 320 305 300 294 258 258 265 253 241 228 274 273 266 299 295 315 239 225 226 208 224 254 251 228 161 184 202 220 210 233 281 342 332 317 186 237 180
345 346 344 342 339 335 330 329 327 323 322 311 303 289 267 266 272 259 253 253 246 244 251 301 333 333 345 230 246 246 200 227 234 241 242 200 151 197 223 203 256 3 344 360 314 299 121
344 342 341 338 335 332 330 322 313 311 308 305 295 304 291 272 265 274 269 267 255 256 250 238 244 281 249 265 263 301 328 272 249 260 223 248 185 167 202 206 179 353 309 312 325 341 354
Wind_Speed_850mb
47 46 45 45 45 45 46 47 45 44 45 46 46 47 46 46 46 45 44 44 44 41 39 38 40 31 27 21 51 17 8 11 33 55 62 47 41 44 12 13 26 29 28 41 66 55 48
47 49 50 50 49 48 49 51 52 50 48 48 47 48 46 46 47 47 47 46 44 43 43 41 37 34 28 21 32 16 45 43 23 50 56 55 30 43 13 17 13 19 38 37 41 41 50
48 50 51 50 50 51 52 54 55 56 57 57 53 53 55 50 47 45 44 46 45 44 44 43 37 35 41 72 18 12 29 35 50 45 49 48 45 31 20 11 27 17 10 12 20 25 22
49 51 53 51 51 52 54 56 55 56 58 63 61 58 59 58 55 52 44 38 43 45 40 37 35 33 31 26 31 61 44 30 24 44 49 42 37 48 17 7 17 4 4 5 9 9 25
48 46 48 50 52 53 55 57 58 58 62 62 60 61 62 60 59 57 46 39 39 34 26 19 21 22 25 22 35 43 61 62 46 41 46 39 35 24 20 8 7 8 9 11 13 11 12
44 47 48 50 52 54 55 58 61 64 69 69 66 65 65 66 63 59 45 34 15 11 4 3 12 10 28 15 5 6 27 55 49 54 46 27 27 9 4 8 16 11 8 9 8 9 16
47 49 50 52 54 56 58 59 61 65 69 70 71 70 70 69 74 52 30 9 11 4 13 21 11 20 29 21 19 10 22 59 45 32 16 19 10 17 20 13 12 7 7 12 11 5 8
50 50 53 54 56 56 58 61 64 67 69 68 67 69 71 70 65 25 46 15 24 24 36 42 58 78 81 63 19 19 28 41 24 16 11 6 29 17 18 15 16 13 15 25 3 13 11
51 51 52 54 57 59 61 63 64 66 68 68 68 67 70 66 40 40 35 15 32 42 14 29 47 46 43 60 39 56 48 52 12 18 18 22 12 20 17 13 15 10 17 22 16 3 2
49 51 53 54 54 56 57 60 62 65 68 69 67 64 67 69 18 54 10 37 32 26 7 16 12 15 28 24 20 85 52 49 11 35 15 14 20 20 18 16 19 19 13 21 6 7 7
48 50 50 52 52 54 57 59 62 64 67 69 70 63 59 56 61 56 33 32 22 1 12 6 8 11 30 30 6 39 75 38 21 17 18 19 28 35 26 36 16 19 9 14 8 9 2
48 50 52 53 55 56 58 60 62 63 66 71 71 67 61 59 67 24 44 30 5 6 18 11 7 6 7 10 9 17 50 25 28 11 7 22 16 28 21 19 26 11 4 8 7 7 8
52 54 56 57 58 60 60 62 63 64 67 71 73 68 58 63 56 49 36 19 6 10 11 10 9 10 7 8 8 8 32 27 19 22 30 12 38 9 14 16 13 11 14 8 7 9 21
54 55 56 57 59 60 61 61 61 65 68 72 74 69 55 32 36 18 8 6 12 7 12 10 12 19 5 19 6 13 23 35 31 8 11 22 12 29 10 19 20 15 22 13 14 8 13
54 56 57 58 58 58 59 61 61 62 64 66 70 67 60 18 40 24 9 8 14 10 5 16 13 11 11 11 16 16 13 33 36 22 18 17 19 6 29 14 31 14 20 25 6 4 6
56 57 57 56 56 58 58 58 58 59 60 60 65 62 28 35 54 20 6 9 9 7 12 11 7 8 10 16 14 17 12 7 19 6 9 15 4 15 24 15 15 30 17 8 4 21 24
56 57 56 54 55 55 54 54 54 56 56 55 52 32 23 46 30 11 5 12 11 34 16 13 8 9 4 9 8 7 9 12 24 24 19 5 8 10 12 17 37 11 17 6 13 14 19
57 58 57 55 54 54 50 50 50 53 53 50 28 8 37 48 17 9 9 26 29 27 29 6 7 6 6 9 7 6 11 14 37 22 12 11 5 27 25 16 40 28 35 17 11 21 11
57 55 54 53 51 49 48 47 46 47 43 44 41 17 22 23 8 8 14 16 21 25 14 9 10 11 11 7 6 6 11 15 47 24 12 14 8 3 12 10 1 18 17 38 19 8 41
52 52 53 53 52 49 46 44 44 41 35 27 16 9 13 11 12 6 10 9 22 28 20 22 6 6 8 7 9 9 10 6 36 25 21 6 7 7 13 12 1 17 24 31 34 20 31
52 52 55 51 51 50 41 40 39 33 29 18 6 6 4 8 9 11 14 9 12 16 13 27 7 13 6 2 3 3 9 15 22 19 12 8 5 7 14 31 36 31 26 46 38 43 32
50 50 52 52 49 45 38 38 35 27 25 10 8 6 6 11 15 14 10 7 9 13 9 16 13 25 14 8 7 10 6 5 9 12 14 10 7 12 12 21 26 35 38 50 48 45 33
53 53 52 50 48 42 40 35 29 26 23 8 12 21 15 8 8 6 6 5 13 28 17 11 18 22 14 6 22 34 34 28 16 6 4 4 3 10 11 18 28 21 59 43 40 30 35
55 55 52 49 45 42 40 36 29 24 22 19 25 25 13 8 13 13 14 28 29 26 24 42 38 14 15 43 41 30 34 46 41 31 33 9 8 4 9 13 15 22 24 34 40 17 17
54 53 51 48 46 43 41 39 33 24 17 27 27 24 10 7 21 20 23 17 32 31 32 30 46 26 37 28 7 9 9 4 26 43 41 36 11 5 5 7 20 31 15 24 20 24 13
48 48 49 50 46 44 41 37 34 29 24 30 29 27 23 12 11 23 10 20 19 12 9 10 21 46 15 5 5 9 8 7 8 11 42 36 36 19 9 8 12 3 26 45 10 35 23
50 49 48 48 48 47 44 41 33 30 25 28 31 22 26 21 31 41 18 9 14 8 8 17 15 9 5 3 7 9 10 8 9 9 8 16 16 29 18 9 17 14 47 30 14 27 14
51 52 53 53 53 52 49 44 38 32 29 30 34 25 30 27 53 55 58 41 34 24 11 12 19 3 4 5 7 8 8 10 10 12 9 24 20 16 13 13 18 36 27 13 23 45 3
53 55 58 60 60 60 56 49 41 35 32 30 39 26 30 34 50 56 65 70 67 70 45 24 19 9 5 4 2 6 6 7 6 9 14 16 14 19 17 16 7 8 17 44 38 18 23
Wind_Direction_850mb
359 360 359 356 354 353 352 350 347 345 343 341 339 336 329 325 321 316 313 310 307 300 295 291 290 291 285 266 255 228 166 83 172 177 186 188 192 201 203 215 208 219 251 251 259 265 198
0 1 0 360 358 357 356 355 353 351 347 343 339 338 334 328 320 316 311 307 303 302 295 287 282 282 266 245 277 257 220 227 192 181 191 200 210 211 248 236 188 219 235 250 254 248 196
358 358 358 358 358 358 357 354 353 353 351 347 341 338 337 333 326 316 307 304 306 298 292 286 278 266 253 249 251 256 200 208 212 208 208 210 214 201 232 295 276 255 254 282 236 248 179
355 352 352 355 356 356 355 354 352 351 350 349 346 342 339 333 330 323 308 307 303 297 291 280 269 256 252 272 232 236 232 211 209 222 221 226 233 226 225 271 333 262 130 279 297 131 189
351 352 353 354 352 350 350 351 351 351 351 350 347 344 342 337 334 326 316 312 301 300 295 273 248 232 262 249 237 231 220 225 231 217 217 229 229 219 213 163 354 346 234 231 324 238 144
357 356 355 353 352 350 349 349 350 350 349 348 347 345 344 341 341 330 325 318 316 315 352 237 212 266 243 237 223 254 214 209 203 212 223 229 205 172 89 132 210 207 221 240 170 323 176
354 353 353 352 351 350 349 349 347 345 344 344 342 342 340 341 342 337 351 7 341 286 293 235 221 249 249 269 261 242 211 190 198 203 170 180 178 204 208 188 198 195 246 263 108 295 133
353 353 351 350 349 349 347 345 343 342 342 342 341 339 337 338 346 10 353 71 37 329 295 277 259 255 251 253 295 237 202 166 174 187 157 179 221 193 198 192 213 215 228 260 2 220 164
350 349 348 348 348 347 345 344 344 343 342 341 341 340 337 335 344 347 356 32 349 331 261 283 247 248 240 225 223 238 182 188 145 173 196 209 227 170 180 191 193 221 209 245 234 14 353
347 347 348 348 348 347 346 345 344 343 342 340 341 340 338 334 348 338 10 334 332 323 305 275 234 249 189 188 225 220 197 188 171 198 183 224 231 198 198 211 181 234 199 258 253 61 241
349 350 350 350 351 350 348 347 347 346 344 341 341 341 338 332 318 325 320 331 317 17 316 221 189 161 166 173 153 204 204 193 187 173 152 220 186 203 213 217 166 240 198 238 171 199 203
353 352 350 349 347 346 344 344 344 345 345 342 342 339 335 328 313 327 321 331 320 51 247 296 89 89 110 270 284 109 182 179 198 164 218 209 209 194 198 199 198 186 251 358 30 136 231
350 349 348 347 345 343 342 341 340 341 342 343 343 341 328 321 318 300 299 326 67 206 329 348 348 340 294 216 240 181 174 187 170 180 214 169 229 207 155 186 189 132 114 262 276 208 236
348 347 346 346 344 343 342 340 339 340 341 341 341 343 325 356 349 303 241 69 206 231 271 15 334 298 67 354 10 330 175 193 219 134 159 197 223 202 168 183 190 188 179 162 198 207 245
346 345 344 343 342 341 342 343 342 338 337 339 340 344 337 31 12 346 185 199 206 203 10 346 333 37 350 3 5 14 15 215 200 180 175 180 234 201 195 188 178 190 192 197 142 199 11
344 341 340 340 340 342 342 342 342 339 336 340 341 337 23 358 335 318 53 273 285 335 8 2 10 21 345 346 5 23 346 341 357 294 245 205 206 221 205 173 212 199 163 172 349 218 241
340 339 338 338 338 338 339 341 341 339 338 341 343 328 6 345 328 184 198 245 297 304 357 355 336 317 274 319 4 18 283 52 11 344 336 279 239 230 142 193 200 197 200 189 155 177 226
343 341 340 338 336 338 338 339 339 339 339 342 346 330 359 358 46 12 9 319 328 307 339 311 313 318 309 19 325 230 250 32 28 7 20 330 263 239 213 217 202 205 213 177 195 226 248
343 342 341 339 337 336 338 337 337 339 340 342 330 294 13 10 57 350 316 318 342 357 327 9 337 29 18 6 332 51 325 31 18 16 19 341 309 292 332 297 318 214 191 201 207 158 232
344 345 343 340 339 335 335 334 335 338 337 346 332 330 341 38 81 4 337 311 350 339 320 345 303 46 46 11 32 328 309 26 348 336 3 42 295 238 256 269 107 206 228 214 206 221 233
349 348 345 343 341 337 334 333 335 334 331 335 315 274 342 315 346 327 323 275 348 3 334 330 349 59 20 3 283 121 2 330 333 2 16 83 254 282 311 295 292 263 261 228 213 217 214
348 347 349 349 348 348 339 336 334 330 321 316 285 299 317 279 278 308 312 311 288 342 334 313 329 320 311 232 217 288 275 185 243 327 355 350 279 343 295 259 265 265 255 253 228 216 227
349 347 347 347 350 349 346 343 339 329 314 270 278 285 267 273 284 282 244 276 307 314 288 239 297 299 303 250 304 280 271 234 221 184 292 283 265 12 286 315 321 276 238 246 247 221 195
349 347 345 343 345 348 350 347 342 333 316 287 286 276 253 274 273 279 295 284 290 287 281 291 293 291 294 321 311 290 250 224 229 228 207 216 166 164 264 309 230 263 217 231 230 224 197
348 348 346 342 342 340 341 343 341 333 313 299 288 280 257 269 274 276 272 291 296 292 285 257 273 277 318 312 310 324 310 236 227 224 205 203 175 221 225 260 294 303 283 192 197 233 215
349 350 352 350 344 340 338 339 334 330 312 295 290 282 262 271 240 259 282 288 286 279 293 259 283 312 286 232 206 215 220 298 259 277 208 197 209 186 163 227 249 237 325 328 243 228 194
347 347 348 347 344 342 339 337 330 327 320 305 300 294 258 258 265 253 241 228 274 273 266 299 295 315 239 225 226 208 224 254 251 228 161 184 202 220 210 233 281 342 332 317 186 237 180
345 346 344 342 339 335 330 329 327 323 322 311 303 289 267 266 272 259 253 253 246 244 251 301 333 333 345 230 246 246 200 227 234 241 242 200 151 197 223 203 256 3 344 360 314 299 121
344 342 341 338 335 332 330 322 313 311 308 305 295 304 291 272 265 274 269 267 255 256 250 238 244 281 249 265 263 301 328 272 249 260 223 248 185 167 202 206 179 353 309 312 325 341 354